Location: Grosseto
(42.7670°N, 11.1330°E)
Time: 09:48:54
(UTC+02:00)

ISS - Visible Passes

Search period start: 08 May 2021 00:00
Search period end: 18 May 2021 00:00
Orbit: 418 x 421 km, 51.6° (Epoch: 08 May)

Date Brightness Start Highest point End Pass type
(mag) Time Alt. Az. Time Alt. Az. Time Alt. Az.
08 May -1.5 02:49:24 25° N 02:49:24 25° N 02:51:48 10° NE visible
08 May -1.0 04:24:06 10° NW 04:26:31 18° N 04:28:56 10° NE visible
09 May -0.8 02:03:27 17° NE 02:03:27 17° NE 02:04:27 10° NE visible
09 May -1.0 03:36:27 10° NW 03:38:52 18° N 03:41:17 10° NE visible
09 May -1.5 05:13:36 10° NW 05:16:29 26° NNE 05:19:24 10° ENE visible
10 May -1.2 02:50:22 18° NNW 02:51:13 19° N 02:53:44 10° NE visible
10 May -1.2 04:26:12 10° NW 04:28:53 21° NNE 04:31:35 10° ENE visible
11 May -1.0 02:04:21 20° N 02:04:21 20° N 02:06:17 10° NE visible
11 May -1.0 03:38:45 10° NW 03:41:16 19° N 03:43:46 10° NE visible
11 May -2.6 05:15:24 10° NW 05:18:41 46° NNE 05:21:56 10° ESE visible
12 May -0.6 01:18:16 14° NE 01:18:16 14° NE 01:18:54 10° NE visible
12 May -0.9 02:51:12 10° NW 02:53:36 18° N 02:56:01 10° NE visible
12 May -1.9 04:28:02 10° NW 04:31:09 33° NNE 04:34:15 10° E visible
13 May -0.9 02:05:02 16° NNW 02:05:57 18° N 02:08:21 10° NE visible
13 May -1.4 03:40:40 10° NW 03:43:34 26° NNE 03:46:28 10° ENE visible
13 May -3.8 05:17:16 10° WNW 05:20:39 71° SW 05:24:00 10° SE visible
14 May -0.9 01:18:38 19° N 01:18:38 19° N 01:20:49 10° NE visible
14 May -1.1 02:53:16 10° NW 02:55:58 21° NNE 02:58:39 10° ENE visible
14 May -3.5 04:29:50 10° NW 04:33:13 72° NNE 04:36:36 10° ESE visible
14 May -2.1 21:14:57 10° S 21:16:58 15° SE 21:18:59 10° E visible
14 May -3.6 22:50:03 10° WSW 22:53:24 72° NNW 22:55:41 19° NE visible
15 May -1.2 00:27:59 10° WNW 00:30:39 21° NNW 00:33:20 10° NE visible
15 May -0.9 02:05:49 10° NW 02:08:19 19° N 02:10:51 10° NE visible
15 May -2.7 03:42:28 10° NW 03:45:44 46° NNE 03:49:00 10° ESE visible
15 May -2.6 05:19:34 10° WNW 05:22:24 25° SW 05:25:12 10° SSE visible
15 May -3.9 22:02:38 10° SW 22:05:58 71° SE 22:09:20 10° ENE visible
15 May -1.5 23:40:09 10° WNW 23:43:02 26° NNW 23:45:56 10° NE visible
16 May -0.8 01:18:16 10° NW 01:20:40 18° N 01:23:05 10° NE visible
16 May -2.0 02:55:05 10° NW 02:58:12 33° NNE 03:01:19 10° E visible
16 May -3.4 04:31:52 10° WNW 04:35:05 41° SW 04:38:16 10° SSE visible
16 May -3.4 21:15:25 10° SSW 21:18:36 41° SE 21:21:48 10° ENE visible
16 May -1.9 22:52:22 10° W 22:55:28 33° NNW 22:58:34 10° NE visible
17 May -0.8 00:30:36 10° NW 00:33:00 18° N 00:35:25 10° NE visible
17 May -1.5 02:07:43 10° NW 02:10:37 26° NNE 02:13:32 10° ENE visible
17 May -3.9 03:44:20 10° WNW 03:47:42 70° SW 03:51:03 10° SE visible
17 May -2.6 22:04:40 10° WSW 22:07:56 46° NNW 22:11:12 10° NE visible
17 May -0.9 23:42:50 10° NW 23:45:20 19° N 23:47:51 10° NE visible
